Location: Heisede
(52.2582°N, 9.8523°E)
Time: 00:57:59
(UTC+00:00)

Cosmos 2074 Rocket - Pass Details

Date: 13 January 2026
Orbit: 965 x 986 km, 82.9° (Epoch: 18 February)

Event Time Altitude Azimuth Distance (km) Brightness Sun altitude
Rises 04:52:55 0° 177° (S) 3,683 7.1 -22.3°
Reaches altitude 10° 04:55:27 10° 175° (S) 2,739 6.5 -21.9°
Maximum altitude 05:01:39 66° 95° (E) 1,074 4.4 -21.0°
Drops below altitude 10° 05:07:54 10° 15° (NNE) 2,754 6.4 -20.0°
Sets 05:10:26 0° 12° (NNE) 3,704 7.1 -19.6°
